Regional Weather Roundup
Issued by NWS Newport/Morehead, NC

Current Version | Previous Version | Text Only | Print | Product List | Glossary Off
Versions: 1 2 3 4 5 6 7 8 9 10 11 12 13 14 15 16 17 18 19 20 21 22 23 24 25 26 27 28 29 30 31 32 33 34 35 36 37 38 39 40 41 42 43 44 45 46 47 48 49 50
385 ASUS42 KMHX 190210 RWRMHX WEATHER ROUNDUP FOR EASTERN NORTH CAROLINA NATIONAL WEATHER SERVICE NEWPORT/MOREHEAD CITY NC 900 PM EST WED JAN 18 2017 NOTE: "FAIR" INDICATES FEW OR NO CLOUDS BELOW 12,000 FEET WITH NO SIGNIFICANT WEATHER AND/OR OBSTRUCTIONS TO VISIBILITY NCZ015>017-031-032-045>047-102-103-190300- NORTH COAST CITY SKY/WX TMP DP RH WIND PRES REMARKS EDENTON PTCLDY 45 42 91 CALM 30.06S ELIZABETH CITY CLEAR 45 42 89 W5 30.04S KITTY HAWK NOT AVBL MANTEO CLEAR 46 45 97 N3 30.04R $$ NCZ045>047-081-094-103-104-190300- CENTRAL COAST CITY SKY/WX TMP DP RH WIND PRES REMARKS FRISCO CLEAR 50 46 86 VRB3 30.03R $$ NCZ095-097-098-100-101-190300- SOUTHERN COAST CITY SKY/WX TMP DP RH WIND PRES REMARKS BEAUFORT CLEAR 48 42 80 CALM 30.05S CEDAR ISLAND NOT AVBL JACKSONVILLE CLEAR 52 46 80 E8 30.04 PINEY ISLAND CLEAR N/A N/A N/A N3 30.05R WILMINGTON CLEAR 57 40 52 NE5 30.03R $$ NCZ011>013-027>030-043-044-078>080-089-090>093-098-190300- COASTAL PLAIN CITY SKY/WX TMP DP RH WIND PRES REMARKS AHOSKIE N/A 42 42 97 CALM 30.06S CLINTON CLEAR 52 41 68 NE3 30.04S ELIZABETHTOWN CLEAR 54 42 64 CALM 30.03R GOLDSBORO CLEAR 51 39 64 CALM 30.03R GREENVILLE PTCLDY 48 45 87 CALM 30.07R HAVELOCK CLEAR 46 43 89 SE3 30.06R KENANSVILLE CLEAR 45 39 81 CALM 30.04R KINSTON CLEAR 45 39 81 CALM 30.05R NEW BERN CLEAR 46 43 89 CALM 30.06R RICHLANDS CLEAR 46 40 79 NE7 30.05R ROCKY MOUNT CLEAR 47 39 74 CALM 30.05R WASHINGTON PTCLDY 45 43 93 CALM N/A WHITEVILLE CLEAR 54 44 68 CALM 30.02S $$ AMZ130-135-150-152-154-156-158-170-250-252-270-ANZ085-086-088-633-658-670-190300- MARINE OBSERVATIONS STATION/POSITION TIME TEMP WIND PRES WAVE SWELL AIR SEA DIR/SP/G HT/PER HT/PER (UTC) (F) (DEG/KT/KT) (MB) (FT/S) (FT/S) CHESAPEAKE LIGHT NOT AVBL 64 E VA BEACH NOT AVBL DUCK NOT AVBL 2 E DUCK NOT AVBL OREGON INLET NOT AVBL 13E OREGON INLT NOT AVBL HATTERAS CG NOT AVBL DIAMOND BUOY NOT AVBL CAPE LOOKOUT NOT AVBL BEAUFORT LAB NOT AVBL 30 SE NEW RVR IN NOT AVBL 30 SE NEW RVR IN NOT AVBL 27 SE WRIGHTSVLE NOT AVBL 5 SE WRIGHTSVLE NOT AVBL 225 S CAPE HAT NOT AVBL 41 SE CHARLESTON NOT AVBL $$

USA.gov is the U.S. government's official web portal to all federal, state and local government web resources and services.